Location: Hurecourt
(47.9030°N, 6.0653°E)
Time: 10:43:22
(UTC+00:00)

Cosmos 1697 Rocket - Pass Details

Date: 14 July 2020
Orbit: 834 x 842 km, 71.0° (Epoch: 06 August)

Event Time Altitude Azimuth Distance (km) Brightness Sun altitude
Rises 00:24:04 0° 336° (NNW) 3,400 6.8 -19.8°
Reaches altitude 10° 00:26:47 10° 346° (NNW) 2,461 6.1 -19.7°
Maximum altitude 00:31:50 33° 50° (NE) 1,382 4.3 -19.6°
Drops below altitude 10° 00:36:51 10° 114° (ESE) 2,444 5.0 -19.4°
Sets 00:39:32 0° 124° (ESE) 3,373 5.6 -19.3°
